Regional Weather Roundup
Issued by NWS

Home | Current Version | Previous Version | Graphics & Text | Print | Product List | Glossary On
Versions: 1 2 3 4 5 6 7 8 9 10 11 12 13 14 15 16 17 18 19 20 21 22 23 24 25 26 27 28 29 30 31 32 33 34 35 36 37 38 39 40 41 42 43 44 45 46 47 48 49 50
000
ASUS43 KLOT 271604
RWRIL

ILLINOIS REGIONAL WEATHER ROUNDUP
NATIONAL WEATHER SERVICE CHICAGO/ROMEOVILLE IL
1100 AM CDT SAT AUG 27 2016

NOTE: "FAIR" INDICATES FEW OR NO CLOUDS BELOW 12,000 FEET WITH NO
SIGNIFICANT WEATHER AND/OR OBSTRUCTIONS TO VISIBILITY.

* THESE STATIONS ARE NOT UNDER NWS QUALITY CONTROL. THEY ALSO MAY NOT
  REPORT WEATHER SUCH AS PRECIPITATION OR FOG.

ILZ001-002-007-009-015-016-024-271700-
NORTHWEST ILLINOIS

CITY           SKY/WX    TMP DP  RH WIND       PRES   REMARKS
MOLINE         PTSUNNY   76  68  76 SW15      30.02S
STERLING*      PTSUNNY   78  72  81 W12       30.02F HX  80
SAVANNA*       CLOUDY    74  70  87 S8        30.01F
$$

ILZ003-004-008-010-011-017-018-271700-
NORTH CENTRAL ILLINOIS

CITY           SKY/WX    TMP DP  RH WIND       PRES   REMARKS
ROCKFORD       CLOUDY    74  69  85 S6        30.04S
FREEPORT*      CLOUDY    73  69  88 SW3       30.04S
ROCHELLE*      CLOUDY    74  70  89 CALM      30.04S
$$

ILZ005-006-012>014-019>023-271700-
NORTHEAST ILLINOIS

CITY           SKY/WX    TMP DP  RH WIND       PRES   REMARKS
CHICAGO-OHARE  CLOUDY    74  70  87 S12       30.05S
CHICAGO-MIDWAY CLOUDY    75  70  84 S8        30.06R
AURORA         CLOUDY    75  71  87 S8        30.06R
LANSING*       CLOUDY    75  73  92 S12       30.08R
JOLIET*        PTSUNNY   75  74  95 S8        30.06S
WAUKEGAN       CLOUDY    72  70  93 SE9       30.04F
DUPAGE AIRPORT CLOUDY    75  70  84 S10       30.05R
KANKAKEE*      CLOUDY    78  73  84 SE10      30.09R HX  80
WHEELING       CLOUDY    74  70  87 S12       30.05F
MORRIS*        CLOUDY    76  72  87 S7        30.05R
ROMEOVILLE*    CLOUDY    74  74 100 S10       30.07R
NORTHERLY ISL    N/A     72  70  93 SE5         N/A
$$

LMZ740>746-271700-
SOUTHERN LAKE MICHIGAN

STATION/POSITION SKY/WX   TEMP    WIND        PRES    VSBY  WAVE
                          AIR SEA DIR/SP/G                  HT/PER
                          (F)     (DEG/KT/KT) (MB)    (MI)  (FT/S)
SOUTHERN BUOY              71 74  140/ 16/ 17 1017.8          2/ 4
WILMETTE HARBOR            71 69  180/  8/ 10   N/A           1/ 4
HARRISON CRIB              72     140/ 10/ 11   N/A
BURNHAM HARBOR             72     130/  6/ 10   N/A
CALUMET HARBOR             71     100/  9/ 12 1017.2F
BURNS HARBOR               74     110/ 10/ 14 1018.6F
MICHIGAN CITY              71     110/  7/  9   N/A
MICHIGAN CITY 6N           72 75  130/ 10/ 12   N/A           1/ 4
ST. JOSEPH                 70 75  110/ 12/ 14 1018.6F         1
$$

ILZ025>027-034>036-040-047-049-050-058-095>099-271700-
WEST-CENTRAL ILLINOIS

CITY           SKY/WX    TMP DP  RH WIND       PRES   REMARKS
QUINCY         SUNNY     80  74  81 W8        30.05S HX  85
GALESBURG*     MOSUNNY   78  71  78 SW12      30.04S HX  80
MACOMB*        MOSUNNY   78  73  82 W10       30.07R HX  81
JACKSONVILLE*  CLOUDY    80  74  81 SW7       30.07R HX  84
PITTSFIELD*    MOSUNNY   81  74  80 S6        30.07S HX  86
$$

ILZ028>032-037-038-041>044-048-051>054-059>061-271700-
CENTRAL ILLINOIS

CITY           SKY/WX    TMP DP  RH WIND       PRES   REMARKS
PONTIAC        PTSUNNY   79  75  87 S7        30.07S HX  84
BLOOMINGTON    CLOUDY    79  73  82 SW9       30.09S HX  82
DECATUR        SUNNY     82  74  76 S6        30.09R HX  88
PEORIA         CLOUDY    73  73 100 S13       30.05S
LACON*         PTSUNNY   77  71  83 SW12      30.04R
LINCOLN*       PTSUNNY   81  74  78 S8        30.07S HX  87
SPRINGFIELD    MOSUNNY   83  74  74 S7        30.07S HX  89
TAYLORVILLE    MOSUNNY   81  74  79 S5        30.08S HX  85
$$

ILZ033-039-045-046-055>057-062-063-271700-
EAST-CENTRAL ILLINOIS

CITY           SKY/WX    TMP DP  RH WIND       PRES   REMARKS
CHAMPAIGN      MOSUNNY   81  74  79 VRB3      30.10R HX  86
RANTOUL*       MOSUNNY   82  75  81 S6        30.09S HX  88
MATTOON        SUNNY     81  73  76 SE9       30.09F HX  86
PARIS*         CLOUDY    77  73  88 S3        30.12S
$$

ILZ079-100>102-271700-
SOUTHWEST ILLINOIS

CITY           SKY/WX    TMP DP  RH WIND       PRES   REMARKS
BELLEVILLE     MOSUNNY   83  71  66 VRB3      30.07S HX  88
CAHOKIA*       MOSUNNY   83  69  62 SW6       30.07F HX  86
SPARTA*        MOSUNNY   80  73  77 CALM      30.10S HX  85
$$

ILZ064>066-069>071-074>076-080>082-084>086-088>090-092>094-271700-
SOUTH-CENTRAL ILLINOIS

CITY           SKY/WX    TMP DP  RH WIND       PRES   REMARKS
CARBONDALE     MOSUNNY   80  70  71 CALM      30.10S HX  83
EFFINGHAM*     SUNNY     82  74  78 SE5       30.11F HX  87
MARION         PTSUNNY   81  73  78 SE7       30.12R HX  85
MT. VERNON     PTSUNNY   81  70  69 CALM      30.12R HX  84
CENTRALIA*     CLOUDY    83  74  74 SE5       30.09F HX  89
SALEM*         CLOUDY    83  72  69 CALM      30.10F HX  87
METROPOLIS*    MOSUNNY   82  74  77 CALM      30.11F HX  87
$$

ILZ067-068-072-073-078-083-087-091-271700-
SOUTHEAST ILLINOIS

CITY           SKY/WX    TMP DP  RH WIND       PRES   REMARKS
LAWRENCEVILLE  CLOUDY    76  72  87 NE5       30.12F
FLORA*         MOSUNNY   83  73  72 SE3       30.11F HX  89
FAIRFIELD*     CLOUDY    78  73  84 CALM      30.11S HX  80
HARRISBURG*    PTSUNNY   78  73  83 CALM      30.12S HX  81
ROBINSON*      CLOUDY    76  73  90 SE6       30.13F
CARMI*         CLOUDY    80  73  79 E6        30.11F HX  85
$$

ABBREVIATIONS USED IN REMARKS
   TC - TEMPERATURE IN CELSIUS
  WCI - WIND CHILL INDEX
   HX - HEAT INDEX
  VSB - VISIBILITY
$$





USA.gov is the U.S. government's official web portal to all federal, state and local government web resources and services.